Other Public Products
Issued by NWS Charleston, SC

Home | Current Version | Previous Version | Text Only | Print | Product List | Glossary Off
Versions: 1 2 3 4 5 6 7 8 9 10 11 12 13 14 15 16 17 18 19 20 21 22 23 24 25 26 27 28 29 30 31 32 33 34 35 36 37 38 39 40 41 42 43 44 45 46 47 48 49 50

000
FPUS82 KCHS 051127
OPUCHS

TEST...KCHS/KSAV Gateway Observations...TEST
National Weather Service Charleston SC
600 AM EST MON DEC 05 2016

NOTE: "fair" indicates few or no clouds below 12,000 feet with no
significant weather and/or obstructions to visibility.

SCZ050-WAZ558-NCZ071-TXZ119-213-PAZ071-DCZ001-FLZ074-172-MI076-
NYZ176-178-MAZ016-IL014-TNZ027-NJZ106-GAZ044-MD014-051200-
...Gateway Observations for Charleston International...

CITY           SKY/WX    TMP DP  RH WIND       PRES   REMARKS
Chas Airport   CLOUDY    57  55  93 N5        29.95F
Seattle        MOCLDY    37  33  85 S10       30.14S WCI  30
Charlotte      CLOUDY    43  40  89 CALM      29.98F
Dallas DFW     CLOUDY    47  41  80 N9        29.91F
Dallas Love    CLOUDY    48  42  80 NE6       29.93F
Philladelphia  CLOUDY    40  38  93 S10       30.01F FOG     WCI  33
Wash National  CLOUDY    42  41  96 S8        30.01S
Baltimore      CLOUDY    40  40 100 SW5       30.00S WCI  37
Miami          PTCLDY    75  72  90 SE9       30.01R
Detroit        CLOUDY    35  33  92 SW10      29.96R FOG     WCI  27
Newark         LGT RAIN  38  36  92 SW3       30.03S FOG
Laguardia      LGT RAIN  40  36  86 SW6       30.02F FOG     WCI  36
J F K          LGT RAIN  40  37  89 W7        30.03F WCI  35
Boston Logan   CLOUDY    32  23  69 CALM      30.08F
Ft. Lauderdale MOCLDY    77  72  84 SE14      30.00R
Chicago O`Hare CLOUDY    33  30  88 W10       30.00R WCI  25
Chicago Midway CLOUDY    34  30  85 W10       30.01R WCI  26
Houston Bush   LGT RAIN  50  48  93 NE14      29.86F
Houston Hobby  HVY RAIN  50  49  96 N13       29.87S FOG
Nashville      MOCLDY    44  40  85 N6        30.06R
Atlanta        DRZL/FOG  44  44 100 NE6       30.00S VSB 1

$$

GAZ044-118-TXZ119-213-NCZ071-DCZ001-MDZ014-506-PAZ021-071-NJZ106-
NYZ176-178-MAZ106-OHZ011-021-055-MIZ076-KYZ091-ILZ014-INZ047-
MNZ060-051200-
...Gateway Observations for Savannah International...

CITY           SKY/WX    TMP DP  RH WIND       PRES   REMARKS
Savannah Arpt  LGT RAIN  63  60  90 CALM      29.96F
Atlanta        DRZL/FOG  44  44 100 NE6       30.00S VSB 1
Charlotte      CLOUDY    43  40  89 CALM      29.98F
Dallas DFW     CLOUDY    47  41  80 N9        29.91F
Houston Bush   LGT RAIN  50  48  93 NE14      29.86F
Wash National  CLOUDY    42  41  96 S8        30.01S
Wash Dulles    CLOUDY    40  37  89 SW8       29.99S WCI  34
Baltimore      CLOUDY    40  40 100 SW5       30.00S WCI  37
Philadelphia   CLOUDY    40  38  93 S10       30.01F FOG     WCI  33
Newark         LGT RAIN  38  36  92 SW3       30.03S FOG
Laguardia      LGT RAIN  40  36  86 SW6       30.02F FOG     WCI  36
J F K          LGT RAIN  40  37  89 W7        30.03F WCI  35
Boston         CLOUDY    32  23  69 CALM      30.08F
Pittsburg      DRIZZLE   43  37  79 W12G20    29.95R
Akron          CLOUDY    35  30  82 W13G25    30.00R WCI  26
Cleveland      MOCLDY    37  30  75 SW13      30.01R WCI  29
Cincinnati     CLOUDY    37  33  85 NW7       30.06R WCI  32
Columbus       CLOUDY    36  32  85 NW9       30.06R WCI  29
Detroit        CLOUDY    35  33  92 SW10      29.96R FOG     WCI  27
Chicago O`Hare CLOUDY    33  30  88 W10       30.00R WCI  25
Minneapolis    MOCLDY    29  26  89 E6        29.79F WCI  23
Indianapolis   CLOUDY    34  30  85 W7        30.06R WCI  28

$$




USA.gov is the U.S. government's official web portal to all federal, state and local government web resources and services.